Location: ??????????
(54.4061°N, 22.6114°E)
Time: 18:12:05
(UTC+00:00)

STARLINK-54 - Pass Details

Date: 23 October 2019
Orbit: 548 x 551 km, 53.0° (Epoch: 14 November)

Event Time Altitude Azimuth Distance (km) Brightness Sun altitude
Rises 17:24:30 0° 279° (W) 2,720 8.8 -19.6°
Reaches altitude 10° 17:26:45 10° 275° (W) 1,825 7.5 -19.9°
Maximum altitude 17:30:49 56° 197° (SSW) 655 3.9 -20.5°
Enters shadow 17:31:34 48° 155° (SSE) 726 3.9 -20.6°
